Fullerton, CA

9:32 PM PDT on April 27, 2017 (GMT -0700)
Fullerton Municipal

Weather History for KFUL - November, 2013

Change the Weather History Date:

Friday, November 15, 2013

  Actual Average Record
Temperature  
Mean Temperature 65 °F 61 °F  
Max Temperature 69 °F 73 °F 91 °F (2007)
Min Temperature 61 °F 50 °F 41 °F (2000)
Degree Days  
Heating Degree Days 0 5  
Month to date heating degree days 5 47  
Since 1 July heating degree days 26 71  
Cooling Degree Days 0 1  
Month to date cooling degree days 37 17  
Year to date cooling degree days 1896 1248  
Growing Degree Days 14 (Base 50)    
Moisture  
Dew Point 55 °F    
Average Humidity 75    
Maximum Humidity 90    
Minimum Humidity 59    
Precipitation  
Precipitation 0.00 in 0.04 in 0.01 in (2006)
Month to date precipitation 0.00 0.60  
Year to date precipitation 2.66 11.33  
Since 1 July precipitation 0.13  
Snow  
Snow 0.00 in - - ()
Month to date snowfall 0.0  
Year to date snowfall 0.0  
Snow Depth 0.00 in    
Sea Level Pressure  
Sea Level Pressure 29.73 in    
Wind  
Wind Speed 6 mph (SSE)    
Max Wind Speed 14 mph    
Max Gust Speed 17 mph    
Visibility 9 miles    
Events      
T = Trace of Precipitation, MM = Missing Value Source: NWS Daily Summary

Daily Weather History Graph

Daily Weather History Graph

Search for Another Location

Airport or City:

Trip Planner

Search our weather history database for the weather conditions in past years. The results will help you decide how hot, cold, wet, or windy it might be!

Date:

Astronomy

Nov. 15, 2013 Rise Set
Actual Time 6:24 AM PST 4:48 PM PST
Civil Twilight 5:57 AM PST 5:14 PM PST
Nautical Twilight 5:27 AM PST 5:45 PM PST
Astronomical Twilight 4:58 AM PST 6:14 PM PST
Moon 3:44 PM PST (11/15) 4:30 AM PST (11/15)
Length of Visible Light 11h 16m
Length of Day
10h 23m
Waxing Gibbous, 97% of the Moon is Illuminated
Nov 15
Waxing Gibbous
Nov 17
Full
Nov 25
Last Quarter
Dec 2
New
Dec 9
First Quarter

Hourly Weather History & Observations

Time (PST) Temp. Dew Point Humidity Pressure Visibility Wind Dir Wind Speed Gust Speed Precip Events Conditions
12:18 AM 62.6 °F 59.0 °F 88% 29.76 in 3.0 mi Calm Calm - N/A   Overcast
12:53 AM 62.1 °F 59.0 °F 90% 29.76 in 4.0 mi South 3.5 mph - N/A   Overcast
1:23 AM 62.6 °F 57.2 °F 82% 29.76 in 6.0 mi South 3.5 mph - N/A   Overcast
1:53 AM 62.1 °F 57.9 °F 86% 29.75 in 6.0 mi SE 3.5 mph - N/A   Overcast
2:15 AM 60.8 °F 57.2 °F 88% 29.74 in 6.0 mi ESE 4.6 mph - N/A   Mostly Cloudy
2:24 AM 60.8 °F 55.4 °F 82% 29.74 in 6.0 mi Calm Calm - N/A   Haze
2:53 AM 62.1 °F 57.0 °F 84% 29.74 in 7.0 mi Calm Calm - N/A   Overcast
3:53 AM 62.1 °F 55.9 °F 80% 29.72 in 7.0 mi East 3.5 mph - N/A   Overcast
4:26 AM 62.6 °F 55.4 °F 77% 29.72 in 8.0 mi East 5.8 mph - N/A   Overcast
4:53 AM 62.1 °F 55.0 °F 78% 29.73 in 9.0 mi East 6.9 mph - N/A   Overcast
5:53 AM 62.1 °F 55.0 °F 78% 29.72 in 10.0 mi East 10.4 mph - N/A   Overcast
6:53 AM 63.0 °F 55.0 °F 75% 29.73 in 9.0 mi Calm Calm - N/A   Overcast
7:35 AM 62.6 °F 55.4 °F 77% 29.74 in 9.0 mi SE 4.6 mph - N/A   Overcast
7:53 AM 64.0 °F 55.0 °F 73% 29.74 in 10.0 mi SE 8.1 mph - N/A   Overcast
8:53 AM 64.9 °F 55.0 °F 70% 29.75 in 10.0 mi South 5.8 mph - N/A   Overcast
9:19 AM 66.2 °F 55.4 °F 68% 29.75 in 10.0 mi South 4.6 mph - N/A   Overcast
9:53 AM 64.9 °F 55.0 °F 70% 29.74 in 10.0 mi South 9.2 mph - N/A   Overcast
10:00 AM 66.2 °F 55.4 °F 68% 29.74 in 10.0 mi SSE 8.1 mph - N/A   Overcast
10:36 AM 66.2 °F 53.6 °F 64% 29.74 in 10.0 mi SE 5.8 mph - N/A   Overcast
10:49 AM 66.2 °F 53.6 °F 64% 29.73 in 10.0 mi SE 8.1 mph - N/A   Overcast
10:53 AM 66.9 °F 53.1 °F 61% 29.73 in 10.0 mi SE 8.1 mph - N/A   Overcast
11:53 AM 68.0 °F 53.1 °F 59% 29.70 in 10.0 mi Variable 3.5 mph - N/A   Overcast
12:53 PM 68.0 °F 54.0 °F 61% 29.68 in 10.0 mi SSE 6.9 mph - N/A   Overcast
1:53 PM 68.0 °F 54.0 °F 61% 29.67 in 10.0 mi South 8.1 mph - N/A   Mostly Cloudy
2:42 PM 68.0 °F 53.6 °F 60% 29.67 in 10.0 mi South 6.9 mph - N/A   Overcast
2:53 PM 68.0 °F 53.1 °F 59% 29.67 in 10.0 mi SSW 10.4 mph - N/A   Overcast
3:53 PM 66.9 °F 53.1 °F 61% 29.67 in 10.0 mi SW 6.9 mph - N/A   Mostly Cloudy
4:53 PM 64.0 °F 54.0 °F 70% 29.68 in 10.0 mi SSW 8.1 mph - N/A   Mostly Cloudy
5:53 PM 63.0 °F 54.0 °F 72% 29.69 in 10.0 mi SSW 3.5 mph - N/A   Scattered Clouds
6:53 PM 63.0 °F 54.0 °F 72% 29.70 in 10.0 mi SSW 3.5 mph - N/A   Overcast
7:53 PM 62.1 °F 55.0 °F 78% 29.73 in 10.0 mi South 3.5 mph - N/A   Overcast
8:53 PM 61.0 °F 55.0 °F 81% 29.74 in 9.0 mi Calm Calm - N/A   Overcast
9:53 PM 61.0 °F 55.0 °F 81% 29.74 in 9.0 mi Calm Calm - N/A   Overcast
10:05 PM 62.6 °F 55.4 °F 77% 29.75 in 9.0 mi Calm Calm - N/A   Overcast
10:53 PM 62.1 °F 54.0 °F 75% 29.74 in 10.0 mi Calm Calm - N/A   Overcast
11:53 PM 61.0 °F 55.0 °F 81% 29.75 in 9.0 mi Calm Calm - N/A   Overcast